Location: ?nandapuram
(16.5396°N, 81.1430°E)
Time: 23:06:48
(UTC+00:00)

ASC 2 Rocket - Pass Details

Date: 14 April 2026
Orbit: 555 x 2327 km, 24.0° (Epoch: 9 May)

Event Time Altitude Azimuth Distance (km) Brightness Sun altitude
Rises 13:39:26 0° 264° (W) 3,744 8.6 -12.3°
Reaches altitude 10° 13:42:37 10° 270° (W) 2,527 7.5 -13.0°
Maximum altitude 13:48:09 50° 345° (NNW) 869 4.0 -14.3°
Enters shadow 13:51:39 15° 58° (ENE) 1,662 4.9 -15.1°
